FENGYUN 1C DEB

Satellite information

Favourite Embed

Satellite Type and Status

DEBRISIN ORBIT

Key statistics

Satellite FENGYUN 1C DEB at a glance.

Uptime

9494

Days in orbit

Revolutions

≈ 14.4

Per day

Orbit

SSO

Sun Synchronous Orbit

Inclination

98.6

Latest

Satellite identification and parameters

Extended collection of information and parameters for FENGYUN 1C DEB.

Object identification

Identified? True

Debris? True

Object name: FENGYUN 1C DEB

International designator: 1999-025JJ

Object number (NORAD): 29936

Object ID (CCSDS): 29936

Country: PEOPLES REPUBLIC OF CHINA (PRC)

Current information (Y/N): Y

RCS size: MEDIUM

Orbital parameters

Period: 100.345 minutes

Inclination: 98.6364 deg

SMA: 7153.02 km

Apoapsis: 857.548 km

Periapsis: 692.222 km

RAAN: 239.832 deg

Eccentricy: 0.0115564

Argument of periapsis: 117.928 deg

Mean anomaly: 243.3662 deg

Mean motion: 14.35055224 rev/day

Mean motion (dot): 0.00000756 rev/day2

B* drag term: 0.00026086 1/REarth

Two-line elements (TLE)

Creation date: May 7, 2025, 3:14 a.m.

Reference frame: TEME

Reference center: EARTH

Epoch: May 6, 2025, 9:13 p.m. UTC

TLE line 0: 0 FENGYUN 1C DEB

TLE line 1: 1 29936U 99025JJ 25126.88450376 .00000756 00000-0 26086-3 0 9994

TLE line 2: 2 29936 98.6364 239.8320 0115564 117.9280 243.3662 14.35055224957776

Live tracking on map

Real-time ground track for satellite FENGYUN 1C DEB.

In-orbit conjunctions

A list of the most updated potential collisions computed for object FENGYUN 1C DEB.

Target Orbit TCA Probability of collision Miss distance Type
DELTA 1 DEB SSO 2025-04-16 22:09:38 0.0001384215 60.0 (m) DEBRIS
COSMOS 1867 COOLANT LEO 2024-12-03 03:16:21 0.0009023909 72.0 (m) DEBRIS

Associated space launch

Chinese polar orbiting meteorological satellite

FENGYUN 1C DEB was lifted into orbit during the mission ‘Long March 4B | Feng Yun 1C’, on board a Long March 4B space rocket.

The launch took place on May 10, 1999, 1:33 a.m. from Launch Complex 7.

For more information about the launch, click the button.

Launch to space Long March 4B | Feng Yun 1C
Long March 4B | Feng Yun 1C

Agency: N/A

Status: Launch Successful

Launch date: May 10, 1999, 1:33 a.m. UTC

Rocket: Long March 4B

Launch pad: Launch Complex 7

Location: Taiyuan Satellite Launch Center, People's Republic of China

...

Latest news about this satellite

There are no fresh news available about this satellite. Check back as we update our databases every day.


Newsletter sign-up

Weekly statistics, charts and insights to help you stay on top of the space industry.